Weather History for Westfield, MA

Change the Weather History Date:

Thursday, August 29, 2013

  Actual Average Record
Temperature  
Mean Temperature 70 °F -  
Max Temperature 75 °F 77 °F 93 °F (2010)
Min Temperature 64 °F 55 °F 46 °F (2003)
Cooling Degree Days 4    
Growing Degree Days 20 (Base 50)    
Moisture  
Dew Point 63 °F    
Average Humidity 81    
Maximum Humidity 94    
Minimum Humidity 69    
Precipitation  
Precipitation 0.00 in - - ()
Sea Level Pressure  
Sea Level Pressure 30.02 in    
Wind  
Wind Speed 6 mph (NE)    
Max Wind Speed 10 mph    
Max Gust Speed 18 mph    
Visibility 10 miles    
Events      
Averages and records for this station are not official NWS values.
T = Trace of Precipitation, MM = Missing Value Source: NWS Daily Summary

Daily Weather History Graph

Daily Weather History Graph

Search for Another Location

Airport:

Trip Planner

Search our weather history database for the weather conditions in past years. The results will help you decide how hot, cold, wet, or windy it might be!

Date:

Astronomy

Aug. 29, 2013 Rise Set
Actual Time 6:13 AM EDT 7:29 PM EDT
Civil Twilight 5:44 AM EDT 7:58 PM EDT
Nautical Twilight 5:09 AM EDT 8:32 PM EDT
Astronomical Twilight 4:32 AM EDT 9:09 PM EDT
Moon No Moon Rise 2:59 PM EDT (8/29)
Length of Visible Light 14h 13m
Length of Day
13h 15m
Last Quarter, 38% of the Moon is Illuminated
Aug 29
Last Quarter
Sep 5
New
Sep 12
First Quarter
Sep 19
Full
Sep 26
Last Quarter

Hourly Weather History & Observations

Time (EDT) Temp. Dew Point Humidity Pressure Visibility Wind Dir Wind Speed Gust Speed Precip Events Conditions
12:49 AM 71.6 °F 68.0 °F 88% 29.94 in 10.0 mi North 6.9 mph - N/A   Overcast
12:53 AM 71.1 °F 68.0 °F 90% 29.94 in 10.0 mi North 8.1 mph - N/A   Overcast
1:05 AM 71.6 °F 68.0 °F 88% 29.95 in 10.0 mi NNE 10.4 mph - N/A   Overcast
1:39 AM 71.6 °F 66.2 °F 83% 29.95 in 10.0 mi NNE 10.4 mph 18.4 mph N/A   Overcast
1:53 AM 71.1 °F 66.0 °F 84% 29.95 in 10.0 mi NE 10.4 mph 18.4 mph 0.00 in   Overcast
2:32 AM 69.8 °F 64.4 °F 83% 29.95 in 10.0 mi NNE 5.8 mph - N/A   Mostly Cloudy
2:53 AM 69.1 °F 64.9 °F 87% 29.94 in 10.0 mi North 4.6 mph - N/A   Clear
3:53 AM 66.9 °F 64.0 °F 90% 29.92 in 10.0 mi Calm Calm - N/A   Mostly Cloudy
4:34 AM 66.2 °F 64.4 °F 94% 29.96 in 10.0 mi NE 4.6 mph - N/A   Mostly Cloudy
4:53 AM 66.9 °F 64.9 °F 93% 29.97 in 10.0 mi NE 5.8 mph - N/A   Overcast
5:53 AM 68.0 °F 64.0 °F 87% 29.99 in 10.0 mi North 6.9 mph - N/A   Overcast
6:53 AM 66.9 °F 63.0 °F 87% 30.01 in 10.0 mi NNE 6.9 mph - N/A   Overcast
7:53 AM 68.0 °F 63.0 °F 84% 30.03 in 10.0 mi North 5.8 mph - N/A   Overcast
8:33 AM 68.0 °F 62.6 °F 83% 30.05 in 10.0 mi NNE 5.8 mph - N/A   Overcast
8:53 AM 68.0 °F 63.0 °F 84% 30.04 in 10.0 mi North 5.8 mph - N/A   Overcast
9:27 AM 68.0 °F 62.6 °F 83% 30.05 in 10.0 mi North 6.9 mph - N/A   Overcast
9:53 AM 69.1 °F 63.0 °F 81% 30.04 in 10.0 mi North 5.8 mph - N/A   Overcast
10:24 AM 71.6 °F 64.4 °F 78% 30.05 in 10.0 mi North 8.1 mph - N/A   Mostly Cloudy
10:53 AM 73.0 °F 64.0 °F 73% 30.05 in 10.0 mi North 6.9 mph - N/A   Overcast
11:53 AM 73.9 °F 64.0 °F 71% 30.04 in 10.0 mi North 6.9 mph - N/A   Overcast
12:53 PM 73.9 °F 64.0 °F 71% 30.04 in 10.0 mi ENE 5.8 mph - N/A   Overcast
1:16 PM 73.4 °F 64.4 °F 73% 30.04 in 10.0 mi ENE 4.6 mph - N/A   Overcast
1:38 PM 75.2 °F 64.4 °F 69% 30.04 in 10.0 mi NE 3.5 mph - N/A   Overcast
1:53 PM 73.9 °F 64.0 °F 71% 30.04 in 10.0 mi NE 5.8 mph - N/A   Overcast
2:50 PM 73.4 °F 64.4 °F 73% 30.03 in 10.0 mi ENE 5.8 mph - N/A   Overcast
2:53 PM 73.0 °F 64.0 °F 73% 30.03 in 10.0 mi ENE 5.8 mph - N/A   Overcast
3:08 PM 73.4 °F 64.4 °F 73% 30.03 in 10.0 mi ENE 4.6 mph - 0.00 in   Overcast
3:53 PM 73.9 °F 64.0 °F 71% 30.02 in 10.0 mi ESE 6.9 mph - 0.00 in   Mostly Cloudy
4:20 PM 73.4 °F 62.6 °F 69% 30.03 in 10.0 mi East 8.1 mph - N/A   Overcast
4:53 PM 72.0 °F 63.0 °F 73% 30.03 in 10.0 mi ENE 6.9 mph - N/A   Mostly Cloudy
5:53 PM 69.1 °F 61.0 °F 75% 30.04 in 10.0 mi ENE 8.1 mph - N/A   Mostly Cloudy
6:53 PM 68.0 °F 61.0 °F 78% 30.04 in 10.0 mi Calm Calm - N/A   Mostly Cloudy
7:53 PM 66.9 °F 61.0 °F 81% 30.05 in 10.0 mi East 3.5 mph - N/A   Mostly Cloudy
8:00 PM 66.2 °F 60.8 °F 83% 30.05 in 10.0 mi Calm Calm - N/A   Overcast
8:53 PM 66.9 °F 61.0 °F 81% 30.06 in 10.0 mi East 3.5 mph - N/A   Overcast
9:00 PM 66.2 °F 60.8 °F 83% 30.06 in 10.0 mi Calm Calm - N/A   Overcast
9:53 PM 66.0 °F 61.0 °F 84% 30.06 in 10.0 mi ENE 3.5 mph - N/A   Overcast
10:53 PM 64.9 °F 60.1 °F 84% 30.04 in 10.0 mi Calm Calm - N/A   Overcast
11:13 PM 64.4 °F 60.8 °F 88% 30.05 in 10.0 mi Calm Calm - N/A   Overcast
11:53 PM 64.9 °F 60.1 °F 84% 30.04 in 10.0 mi Calm Calm - N/A   Overcast